Volver al catálogo

FENGYUN 1C DEB

ActivoSSO
NORAD 31557·DEBRIS·🇨🇳 China

Lanzado May 10, 1999 desde Taiyuan Satellite Launch Center

Loading…

Próximos Pases (próximas 24 horas)

TLE

EnvejeciendoSource: Space-Track

Época: Sep 6, 2026, 04:09 UTC

1 31557U 99025BYY 26249.17348757  .00000356  00000-0  10507-3 0  9991
2 31557  98.3146 229.6216 0169556 184.4472 175.5221 14.41481088649511

Sigue FENGYUN 1C DEB en tiempo real con AllMySat

Download on the App Store